Location: Winthrop
(48.4780°N, 120.1850°W)
Time: 11:55:40
(UTC-07:00)

Vanguard 3 - Pass Details

Date: 13 February 2023
Orbit: 508 x 3249 km, 33.4° (Epoch: 28 March)

Event Time Altitude Azimuth Distance (km) Brightness Sun altitude
Rises 18:00:02 0° 242° (WSW) 3,346 12.1 -7.4°
Reaches altitude 10° 18:02:29 10° 229° (SW) 2,678 10.9 -7.8°
Maximum altitude 18:07:52 27° 173° (S) 2,275 9.5 -8.7°
Drops below altitude 10° 18:16:03 10° 123° (ESE) 4,229 10.4 -10.0°
Enters shadow 18:19:48 - 115° (ESE) 5,353 10.8 -10.6°
